TimeMST,TemperatureF,Dew PointF,Humidity,Sea Level PressureIn,VisibilityMPH,Wind Direction,Wind SpeedMPH,Gust SpeedMPH,PrecipitationIn,Events,Conditions,WindDirDegrees,DateUTC
12:15 AM,32.0,30.2,93,30.27,10.0,SE,13.8,-,N/A,,Overcast,140,2013-01-04 07:15:00
12:35 AM,32.0,28.4,87,30.27,10.0,SE,12.7,18.4,N/A,,Overcast,140,2013-01-04 07:35:00
12:55 AM,32.0,28.4,87,30.27,10.0,SE,12.7,17.3,N/A,Snow,Light Snow,130,2013-01-04 07:55:00
1:15 AM,30.2,28.4,93,30.27,10.0,SE,11.5,16.1,N/A,,Overcast,130,2013-01-04 08:15:00
1:35 AM,30.2,28.4,93,30.27,10.0,SE,13.8,-,N/A,,Overcast,130,2013-01-04 08:35:00
1:55 AM,30.2,28.4,93,30.27,10.0,SE,8.1,-,N/A,,Overcast,130,2013-01-04 08:55:00
2:15 AM,30.2,28.4,93,30.27,10.0,SE,11.5,-,N/A,,Overcast,130,2013-01-04 09:15:00
4:55 AM,30.2,28.4,93,30.27,10.0,SE,5.8,-,N/A,,Overcast,140,2013-01-04 11:55:00
5:15 AM,30.2,28.4,93,30.27,10.0,SE,6.9,-,N/A,,Overcast,140,2013-01-04 12:15:00
5:35 AM,30.2,28.4,93,30.27,10.0,SE,9.2,-,N/A,,Overcast,140,2013-01-04 12:35:00
5:55 AM,30.2,28.4,93,30.27,10.0,SE,9.2,-,N/A,,Overcast,130,2013-01-04 12:55:00
6:15 AM,30.2,28.4,93,30.28,10.0,SE,8.1,-,N/A,,Overcast,130,2013-01-04 13:15:00
6:35 AM,30.2,28.4,93,30.28,10.0,SE,6.9,-,N/A,,Overcast,130,2013-01-04 13:35:00
6:55 AM,30.2,28.4,93,30.29,10.0,ESE,5.8,-,N/A,,Overcast,120,2013-01-04 13:55:00
7:15 AM,30.2,28.4,93,30.29,7.0,ESE,9.2,-,N/A,Snow,Light Snow,120,2013-01-04 14:15:00
7:35 AM,30.2,28.4,93,30.30,1.8,SE,6.9,-,N/A,Snow,Light Snow,140,2013-01-04 14:35:00
7:55 AM,30.2,28.4,93,30.30,2.0,SE,8.1,-,N/A,Snow,Light Snow,140,2013-01-04 14:55:00
8:15 AM,30.2,28.4,93,30.31,4.0,SE,5.8,-,N/A,Snow,Light Snow,140,2013-01-04 15:15:00
8:35 AM,30.2,28.4,93,30.32,2.0,SE,6.9,-,N/A,Snow,Light Snow,130,2013-01-04 15:35:00
8:55 AM,32.0,28.4,87,30.32,1.8,ESE,8.1,-,N/A,Snow,Light Snow,120,2013-01-04 15:55:00
9:15 AM,32.0,28.4,87,30.33,2.0,ESE,8.1,-,N/A,Snow,Light Snow,120,2013-01-04 16:15:00
9:35 AM,32.0,28.4,87,30.34,2.5,SE,9.2,-,N/A,Snow,Light Snow,140,2013-01-04 16:35:00
9:55 AM,32.0,30.2,93,30.34,5.0,SE,10.4,-,N/A,Snow,Light Snow,130,2013-01-04 16:55:00
10:15 AM,33.8,30.2,87,30.34,7.0,SE,9.2,-,N/A,Snow,Light Snow,140,2013-01-04 17:15:00
10:35 AM,33.8,32.0,93,30.33,10.0,SE,9.2,-,N/A,,Overcast,130,2013-01-04 17:35:00
10:55 AM,33.8,30.2,87,30.33,10.0,SE,11.5,-,N/A,,Overcast,140,2013-01-04 17:55:00
11:15 AM,35.6,30.2,81,30.32,10.0,SE,11.5,-,N/A,Snow,Light Snow,140,2013-01-04 18:15:00
11:35 AM,35.6,30.2,81,30.32,10.0,ESE,10.4,-,N/A,,Overcast,120,2013-01-04 18:35:00
11:55 AM,35.6,28.4,75,30.30,10.0,SE,10.4,-,N/A,,Mostly Cloudy,140,2013-01-04 18:55:00
12:15 PM,37.4,28.4,70,30.29,10.0,SE,10.4,-,N/A,,Scattered Clouds,140,2013-01-04 19:15:00
12:35 PM,37.4,28.4,70,30.28,10.0,SE,11.5,-,N/A,,Scattered Clouds,130,2013-01-04 19:35:00
12:55 PM,37.4,28.4,70,30.27,10.0,ESE,12.7,-,N/A,,Scattered Clouds,120,2013-01-04 19:55:00
1:15 PM,37.4,28.4,70,30.25,10.0,SE,11.5,17.3,N/A,,Clear,130,2013-01-04 20:15:00
1:35 PM,39.2,28.4,65,30.24,10.0,SE,11.5,16.1,N/A,,Clear,130,2013-01-04 20:35:00
1:55 PM,37.4,28.4,70,30.24,10.0,SE,9.2,-,N/A,,Scattered Clouds,130,2013-01-04 20:55:00
2:15 PM,39.2,28.4,65,30.23,10.0,ESE,12.7,-,N/A,,Scattered Clouds,120,2013-01-04 21:15:00
2:35 PM,39.2,28.4,65,30.23,10.0,SE,11.5,-,N/A,,Scattered Clouds,130,2013-01-04 21:35:00
2:55 PM,41.0,28.4,61,30.23,10.0,ESE,10.4,-,N/A,,Clear,120,2013-01-04 21:55:00
3:15 PM,41.0,28.4,61,30.23,10.0,ESE,10.4,-,N/A,,Scattered Clouds,120,2013-01-04 22:15:00
3:35 PM,39.2,26.6,61,30.23,10.0,SSE,8.1,-,N/A,,Scattered Clouds,150,2013-01-04 22:35:00
3:55 PM,39.2,26.6,61,30.24,10.0,SSE,10.4,-,N/A,,Clear,160,2013-01-04 22:55:00
4:15 PM,39.2,26.6,61,30.23,10.0,SSE,9.2,-,N/A,,Clear,160,2013-01-04 23:15:00
4:35 PM,37.4,26.6,65,30.23,10.0,SE,8.1,-,N/A,,Clear,140,2013-01-04 23:35:00
4:55 PM,37.4,26.6,65,30.24,10.0,SSE,6.9,-,N/A,,Clear,150,2013-01-04 23:55:00
5:15 PM,35.6,26.6,70,30.24,10.0,SSE,6.9,-,N/A,,Clear,150,2013-01-05 00:15:00
5:35 PM,33.8,26.6,75,30.25,10.0,SE,5.8,-,N/A,,Clear,140,2013-01-05 00:35:00
5:55 PM,32.0,24.8,75,30.25,10.0,SE,5.8,-,N/A,,Clear,140,2013-01-05 00:55:00
6:15 PM,32.0,23.0,69,30.26,10.0,SE,4.6,-,N/A,,Clear,140,2013-01-05 01:15:00
6:35 PM,30.2,23.0,75,30.27,10.0,SSE,5.8,-,N/A,,Clear,150,2013-01-05 01:35:00
6:55 PM,30.2,23.0,75,30.27,10.0,SSE,5.8,-,N/A,,Clear,150,2013-01-05 01:55:00
7:15 PM,28.4,23.0,80,30.28,10.0,SE,6.9,-,N/A,,Clear,140,2013-01-05 02:15:00
7:35 PM,28.4,23.0,80,30.28,10.0,ESE,5.8,-,N/A,,Clear,120,2013-01-05 02:35:00
7:55 PM,28.4,23.0,80,30.28,10.0,SE,5.8,-,N/A,,Clear,130,2013-01-05 02:55:00
8:15 PM,26.6,23.0,86,30.28,10.0,SE,5.8,-,N/A,,Clear,130,2013-01-05 03:15:00
8:35 PM,26.6,21.2,80,30.28,10.0,SE,5.8,-,N/A,,Clear,140,2013-01-05 03:35:00
8:55 PM,26.6,23.0,86,30.29,10.0,SSE,4.6,-,N/A,,Clear,150,2013-01-05 03:55:00
9:15 PM,24.8,21.2,86,30.29,10.0,SSE,4.6,-,N/A,,Clear,150,2013-01-05 04:15:00
9:35 PM,24.8,23.0,93,30.30,10.0,SSE,5.8,-,N/A,,Clear,160,2013-01-05 04:35:00
9:55 PM,24.8,23.0,93,30.30,10.0,SSE,5.8,-,N/A,,Clear,150,2013-01-05 04:55:00
10:15 PM,24.8,23.0,93,30.30,10.0,SE,6.9,-,N/A,,Clear,130,2013-01-05 05:15:00
10:35 PM,24.8,23.0,93,30.31,10.0,SE,5.8,-,N/A,,Clear,130,2013-01-05 05:35:00
10:55 PM,23.0,21.2,93,30.31,10.0,SE,4.6,-,N/A,,Clear,140,2013-01-05 05:55:00
11:15 PM,23.0,21.2,93,30.31,10.0,SE,5.8,-,N/A,,Clear,140,2013-01-05 06:15:00
11:35 PM,23.0,21.2,93,30.30,10.0,SSE,5.8,-,N/A,,Clear,150,2013-01-05 06:35:00
11:55 PM,23.0,21.2,93,30.29,10.0,South,4.6,-,N/A,,Clear,170,2013-01-05 06:55:00